Time,TemperatureF,DewpointF,PressureIn,WindDirection,WindDirectionDegrees,WindSpeedMPH,WindSpeedGustMPH,Humidity,HourlyPrecipIn,Conditions,Clouds,dailyrainin,SolarRadiationWatts/m^2,SoftwareType,DateUTC
2013-01-25 00:03:00,25.1,16.0,30.36,NNE,26,0.0,0.0,68,0.00,,,0.00,0,weatherlink.com 1.10,2013-01-25 05:03:00,
2013-01-25 00:19:00,24.9,16.0,30.36,NNE,26,0.0,0.0,69,0.00,,,0.00,0,weatherlink.com 1.10,2013-01-25 05:19:00,
2013-01-25 00:34:00,24.7,17.0,30.36,NNE,26,0.0,1.0,71,0.00,,,0.00,0,weatherlink.com 1.10,2013-01-25 05:34:00,
2013-01-25 00:49:00,24.2,16.0,30.36,NNE,26,0.0,0.0,71,0.00,,,0.00,0,weatherlink.com 1.10,2013-01-25 05:49:00,
2013-01-25 01:03:00,24.0,17.0,30.36,NNE,26,0.0,1.0,74,0.00,,,0.00,0,weatherlink.com 1.10,2013-01-25 06:03:00,
2013-01-25 01:19:00,24.1,17.0,30.36,NNE,26,0.0,0.0,75,0.00,,,0.00,0,weatherlink.com 1.10,2013-01-25 06:19:00,
2013-01-25 01:33:00,24.6,16.0,30.36,NNE,26,0.0,1.0,69,0.00,,,0.00,0,weatherlink.com 1.10,2013-01-25 06:33:00,
2013-01-25 01:49:00,25.7,15.0,30.37,WSW,252,0.0,3.0,63,0.00,,,0.00,0,weatherlink.com 1.10,2013-01-25 06:49:00,
2013-01-25 02:04:00,27.4,15.0,30.37,NNW,348,1.0,3.0,59,0.00,,,0.00,0,weatherlink.com 1.10,2013-01-25 07:04:00,
2013-01-25 02:19:00,28.5,14.0,30.37,ENE,59,1.0,4.0,56,0.00,,,0.00,0,weatherlink.com 1.10,2013-01-25 07:19:00,
2013-01-25 02:34:00,29.2,14.0,30.36,NNW,330,1.0,5.0,53,0.00,,,0.00,0,weatherlink.com 1.10,2013-01-25 07:34:00,
2013-01-25 02:49:00,29.5,13.0,30.37,NNW,331,1.0,5.0,50,0.00,,,0.00,0,weatherlink.com 1.10,2013-01-25 07:49:00,
2013-01-25 03:04:00,29.5,13.0,30.36,NNW,328,3.0,6.0,50,0.00,,,0.00,0,weatherlink.com 1.10,2013-01-25 08:04:00,
2013-01-25 03:19:00,29.4,12.0,30.37,NNW,328,3.0,8.0,49,0.00,,,0.00,0,weatherlink.com 1.10,2013-01-25 08:19:00,
2013-01-25 03:34:00,29.3,12.0,30.37,NNW,327,2.0,7.0,48,0.00,,,0.00,0,weatherlink.com 1.10,2013-01-25 08:34:00,
2013-01-25 03:49:00,29.1,12.0,30.36,NNW,331,3.0,8.0,49,0.00,,,0.00,0,weatherlink.com 1.10,2013-01-25 08:49:00,
2013-01-25 04:04:00,29.0,12.0,30.34,NNW,328,1.0,5.0,49,0.00,,,0.00,0,weatherlink.com 1.10,2013-01-25 09:04:00,
2013-01-25 04:19:00,29.0,10.0,30.32,NNW,338,1.0,4.0,46,0.00,,,0.00,0,weatherlink.com 1.10,2013-01-25 09:19:00,
2013-01-25 04:34:00,28.9,11.0,30.33,WNW,298,3.0,7.0,47,0.00,,,0.00,0,weatherlink.com 1.10,2013-01-25 09:34:00,
2013-01-25 04:49:00,28.9,11.0,30.32,NNW,329,2.0,8.0,48,0.00,,,0.00,0,weatherlink.com 1.10,2013-01-25 09:49:00,
2013-01-25 05:04:00,28.7,11.0,30.32,NW,325,3.0,10.0,47,0.00,,,0.00,0,weatherlink.com 1.10,2013-01-25 10:04:00,
2013-01-25 05:19:00,28.6,11.0,30.32,NW,325,1.0,6.0,48,0.00,,,0.00,0,weatherlink.com 1.10,2013-01-25 10:19:00,
2013-01-25 05:34:00,28.6,11.0,30.32,NNW,328,4.0,8.0,47,0.00,,,0.00,0,weatherlink.com 1.10,2013-01-25 10:34:00,
2013-01-25 05:49:00,28.5,10.0,30.32,North,349,3.0,6.0,47,0.00,,,0.00,0,weatherlink.com 1.10,2013-01-25 10:49:00,
2013-01-25 06:04:00,28.3,13.0,30.31,NNW,332,2.0,5.0,52,0.00,,,0.00,0,weatherlink.com 1.10,2013-01-25 11:04:00,
2013-01-25 06:19:00,28.1,12.0,30.31,NW,313,5.0,7.0,50,0.00,,,0.00,0,weatherlink.com 1.10,2013-01-25 11:19:00,
2013-01-25 06:34:00,28.1,12.0,30.32,NNW,348,2.0,6.0,50,0.00,,,0.00,0,weatherlink.com 1.10,2013-01-25 11:34:00,
2013-01-25 06:49:00,28.1,11.0,30.33,NW,322,0.0,6.0,48,0.00,,,0.00,0,weatherlink.com 1.10,2013-01-25 11:49:00,
2013-01-25 07:04:00,27.8,15.0,30.32,NW,319,2.0,6.0,58,0.00,,,0.00,0,weatherlink.com 1.10,2013-01-25 12:04:00,
2013-01-25 07:19:00,27.2,17.0,30.33,NNW,333,1.0,3.0,66,0.00,,,0.00,0,weatherlink.com 1.10,2013-01-25 12:19:00,
2013-01-25 07:34:00,26.6,17.0,30.32,WNW,290,1.0,5.0,67,0.00,,,0.00,0,weatherlink.com 1.10,2013-01-25 12:34:00,
2013-01-25 07:49:00,26.5,18.0,30.32,NNW,331,1.0,4.0,70,0.00,,,0.00,0,weatherlink.com 1.10,2013-01-25 12:49:00,
2013-01-25 08:04:00,26.3,20.0,30.32,NNW,342,1.0,6.0,76,0.00,,,0.00,0,weatherlink.com 1.10,2013-01-25 13:04:00,
2013-01-25 08:20:00,26.1,21.0,30.32,NW,325,3.0,4.0,80,0.00,,,0.00,0,weatherlink.com 1.10,2013-01-25 13:20:00,
2013-01-25 08:34:00,25.9,22.0,30.32,North,360,1.0,5.0,84,0.00,,,0.00,7,weatherlink.com 1.10,2013-01-25 13:34:00,
2013-01-25 08:50:00,25.6,22.0,30.32,NNW,336,2.0,5.0,85,0.00,,,0.00,5,weatherlink.com 1.10,2013-01-25 13:50:00,
2013-01-25 09:04:00,25.4,21.0,30.32,NNW,340,1.0,4.0,83,0.00,,,0.00,0,weatherlink.com 1.10,2013-01-25 14:04:00,
2013-01-25 09:20:00,25.4,22.0,30.31,NNW,333,2.0,4.0,86,0.00,,,0.00,9,weatherlink.com 1.10,2013-01-25 14:20:00,
2013-01-25 09:34:00,25.8,23.0,30.31,NNE,16,0.0,5.0,88,0.00,,,0.00,12,weatherlink.com 1.10,2013-01-25 14:34:00,
2013-01-25 09:50:00,25.8,23.0,30.30,NNW,346,1.0,5.0,87,0.00,,,0.00,11,weatherlink.com 1.10,2013-01-25 14:50:00,
2013-01-25 10:05:00,25.9,23.0,30.30,NNW,327,2.0,3.0,87,0.00,,,0.00,11,weatherlink.com 1.10,2013-01-25 15:05:00,
2013-01-25 10:19:00,26.0,22.0,30.30,NNW,343,0.0,3.0,86,0.00,,,0.00,9,weatherlink.com 1.10,2013-01-25 15:19:00,
2013-01-25 10:34:00,26.2,23.0,30.29,NNW,346,2.0,5.0,87,0.00,,,0.00,19,weatherlink.com 1.10,2013-01-25 15:34:00,
2013-01-25 10:49:00,26.5,23.0,30.30,NNW,348,0.0,3.0,87,0.00,,,0.00,7,weatherlink.com 1.10,2013-01-25 15:49:00,
2013-01-25 11:04:00,26.7,23.0,30.30,NW,323,0.0,3.0,86,0.00,,,0.00,7,weatherlink.com 1.10,2013-01-25 16:04:00,
2013-01-25 11:20:00,26.9,23.0,30.29,NW,323,1.0,3.0,86,0.00,,,0.00,12,weatherlink.com 1.10,2013-01-25 16:20:00,
2013-01-25 11:34:00,27.1,24.0,30.27,NNW,328,2.0,4.0,86,0.00,,,0.00,9,weatherlink.com 1.10,2013-01-25 16:34:00,
2013-01-25 11:50:00,27.3,24.0,30.26,NNW,327,1.0,4.0,88,0.00,,,0.00,11,weatherlink.com 1.10,2013-01-25 16:50:00,
2013-01-25 12:05:00,27.6,25.0,30.25,NNW,327,0.0,4.0,88,0.00,,,0.00,11,weatherlink.com 1.10,2013-01-25 17:05:00,
2013-01-25 12:20:00,27.8,25.0,30.24,NNW,327,1.0,2.0,89,0.00,,,0.00,7,weatherlink.com 1.10,2013-01-25 17:20:00,
2013-01-25 12:35:00,28.1,26.0,30.24,NNW,327,1.0,2.0,91,0.00,,,0.00,9,weatherlink.com 1.10,2013-01-25 17:35:00,
2013-01-25 12:50:00,28.8,27.0,30.23,NW,306,0.0,3.0,91,0.00,,,0.00,12,weatherlink.com 1.10,2013-01-25 17:50:00,
2013-01-25 13:05:00,29.2,27.0,30.20,NNW,331,2.0,4.0,91,0.00,,,0.00,12,weatherlink.com 1.10,2013-01-25 18:05:00,
2013-01-25 13:20:00,29.5,28.0,30.22,NNW,329,0.0,3.0,94,0.00,,,0.00,14,weatherlink.com 1.10,2013-01-25 18:20:00,
2013-01-25 13:35:00,29.9,28.0,30.22,NNW,329,0.0,1.0,94,0.00,,,0.00,16,weatherlink.com 1.10,2013-01-25 18:35:00,
2013-01-25 13:50:00,30.3,29.0,30.21,NNW,329,0.0,2.0,94,0.00,,,0.00,12,weatherlink.com 1.10,2013-01-25 18:50:00,
2013-01-25 14:05:00,30.8,29.0,30.20,NNW,329,0.0,2.0,94,0.00,,,0.00,12,weatherlink.com 1.10,2013-01-25 19:05:00,
2013-01-25 14:20:00,31.1,30.0,30.20,NNW,329,0.0,1.0,95,0.00,,,0.00,12,weatherlink.com 1.10,2013-01-25 19:20:00,
2013-01-25 14:35:00,31.4,30.0,30.19,NNW,329,1.0,1.0,95,0.00,,,0.00,16,weatherlink.com 1.10,2013-01-25 19:35:00,
2013-01-25 14:50:00,31.5,30.0,30.17,NNW,331,0.0,4.0,95,0.00,,,0.00,11,weatherlink.com 1.10,2013-01-25 19:50:00,
2013-01-25 15:05:00,31.7,31.0,30.17,NNE,14,0.0,1.0,95,0.00,,,0.00,11,weatherlink.com 1.10,2013-01-25 20:05:00,
2013-01-25 15:20:00,31.9,31.0,30.16,NW,317,0.0,1.0,95,0.00,,,0.00,7,weatherlink.com 1.10,2013-01-25 20:20:00,
2013-01-25 15:43:00,32.2,31.0,30.16,NW,319,0.0,2.0,96,0.00,,,0.00,9,weatherlink.com 1.10,2013-01-25 20:43:00,
2013-01-25 15:50:00,32.3,31.0,30.15,NW,319,0.0,1.0,96,0.00,,,0.00,9,weatherlink.com 1.10,2013-01-25 20:50:00,
2013-01-25 16:05:00,32.4,31.0,30.15,NW,319,0.0,1.0,96,0.00,,,0.00,7,weatherlink.com 1.10,2013-01-25 21:05:00,
2013-01-25 16:20:00,32.4,31.0,30.15,NW,320,0.0,1.0,96,0.00,,,0.00,5,weatherlink.com 1.10,2013-01-25 21:20:00,
2013-01-25 16:35:00,32.3,31.0,30.17,NW,320,0.0,0.0,96,0.00,,,0.00,0,weatherlink.com 1.10,2013-01-25 21:35:00,
2013-01-25 16:51:00,32.2,31.0,30.16,NW,320,0.0,0.0,96,0.00,,,0.00,0,weatherlink.com 1.10,2013-01-25 21:51:00,
2013-01-25 17:05:00,32.3,31.0,30.16,NW,320,0.0,0.0,96,0.00,,,0.00,0,weatherlink.com 1.10,2013-01-25 22:05:00,
2013-01-25 17:21:00,32.4,31.0,30.17,NW,320,0.0,0.0,96,0.00,,,0.00,0,weatherlink.com 1.10,2013-01-25 22:21:00,
2013-01-25 17:35:00,32.4,31.0,30.18,NW,320,0.0,0.0,96,0.00,,,0.00,0,weatherlink.com 1.10,2013-01-25 22:35:00,
2013-01-25 17:51:00,32.4,31.0,30.18,NW,320,0.0,0.0,96,0.00,,,0.00,0,weatherlink.com 1.10,2013-01-25 22:51:00,
2013-01-25 18:05:00,32.4,31.0,30.17,NW,320,0.0,0.0,96,0.00,,,0.00,0,weatherlink.com 1.10,2013-01-25 23:05:00,
2013-01-25 18:20:00,32.4,31.0,30.18,NW,320,0.0,0.0,96,0.00,,,0.00,0,weatherlink.com 1.10,2013-01-25 23:20:00,
2013-01-25 18:35:00,32.3,31.0,30.18,NW,320,0.0,0.0,96,0.00,,,0.00,0,weatherlink.com 1.10,2013-01-25 23:35:00,
2013-01-25 18:50:00,32.3,32.0,30.19,NW,320,0.0,0.0,97,0.00,,,0.00,0,weatherlink.com 1.10,2013-01-25 23:50:00,
2013-01-25 19:05:00,32.3,32.0,30.18,NW,320,0.0,0.0,97,0.00,,,0.00,0,weatherlink.com 1.10,2013-01-26 00:05:00,
2013-01-25 19:21:00,32.2,32.0,30.19,NW,320,0.0,1.0,97,0.00,,,0.00,0,weatherlink.com 1.10,2013-01-26 00:21:00,
2013-01-25 19:35:00,32.2,32.0,30.19,NW,320,0.0,0.0,97,0.00,,,0.00,0,weatherlink.com 1.10,2013-01-26 00:35:00,
2013-01-25 19:51:00,32.2,32.0,30.17,NW,320,0.0,0.0,97,0.00,,,0.00,0,weatherlink.com 1.10,2013-01-26 00:51:00,
2013-01-25 20:05:00,32.2,32.0,30.18,NW,320,0.0,0.0,97,0.00,,,0.00,0,weatherlink.com 1.10,2013-01-26 01:05:00,
2013-01-25 20:20:00,32.2,32.0,30.18,NW,320,0.0,0.0,97,0.00,,,0.00,0,weatherlink.com 1.10,2013-01-26 01:20:00,
2013-01-25 20:36:00,32.2,32.0,30.19,NW,320,0.0,0.0,97,0.00,,,0.00,0,weatherlink.com 1.10,2013-01-26 01:36:00,
2013-01-25 20:50:00,32.2,32.0,30.18,NW,320,0.0,0.0,97,0.00,,,0.00,0,weatherlink.com 1.10,2013-01-26 01:50:00,
2013-01-25 21:05:00,32.2,32.0,30.18,NW,320,0.0,0.0,97,0.00,,,0.00,0,weatherlink.com 1.10,2013-01-26 02:05:00,
2013-01-25 21:21:00,32.2,32.0,30.18,NW,320,0.0,0.0,97,0.00,,,0.00,0,weatherlink.com 1.10,2013-01-26 02:21:00,
2013-01-25 21:35:00,32.3,32.0,30.18,NW,320,0.0,0.0,97,0.00,,,0.00,0,weatherlink.com 1.10,2013-01-26 02:35:00,
2013-01-25 21:50:00,32.3,32.0,30.18,NW,320,0.0,0.0,97,0.00,,,0.00,0,weatherlink.com 1.10,2013-01-26 02:50:00,
2013-01-25 22:05:00,32.3,32.0,30.18,NW,320,0.0,0.0,97,0.00,,,0.00,0,weatherlink.com 1.10,2013-01-26 03:05:00,
2013-01-25 22:20:00,32.4,32.0,30.19,NW,320,0.0,0.0,97,0.00,,,0.00,0,weatherlink.com 1.10,2013-01-26 03:20:00,
2013-01-25 22:36:00,32.5,32.0,30.18,NW,320,0.0,0.0,97,0.00,,,0.00,0,weatherlink.com 1.10,2013-01-26 03:36:00,
2013-01-25 22:50:00,32.4,32.0,30.18,NW,320,0.0,0.0,97,0.00,,,0.00,0,weatherlink.com 1.10,2013-01-26 03:50:00,
2013-01-25 23:06:00,32.4,32.0,30.18,NW,320,0.0,1.0,97,0.00,,,0.00,0,weatherlink.com 1.10,2013-01-26 04:06:00,
2013-01-25 23:21:00,32.3,32.0,30.18,NW,320,0.0,0.0,97,0.00,,,0.00,0,weatherlink.com 1.10,2013-01-26 04:21:00,
2013-01-25 23:35:00,32.3,32.0,30.18,NW,320,0.0,3.0,97,0.00,,,0.00,0,weatherlink.com 1.10,2013-01-26 04:35:00,
2013-01-25 23:51:00,32.3,32.0,30.19,NW,320,0.0,0.0,97,0.00,,,0.00,0,weatherlink.com 1.10,2013-01-26 04:51:00,